Showing default

LEMUR 2 GREENBERG, 42837

Orbit data source: Space-Track

LEMUR 2 GREENBERG, 42837 is a payload satellite owned by Spire (US) in SSO that was launched on Fri, 14 Jul 2017 UTC via a SOYUZ-2-1A launch vehicle from the Tyuratam Missile And Space Complex (TTMTR). Payload-class satellites include a variety of spacecraft equipped with specific instruments for various scientific and technological missions. These include communications satellites like Starlink; space stations such as the ISS; scientific satellites like the Hubble; Earth observation satellites from companies like Planet Labs, Umbra, and HawkEye 360; GPS; miniature CubeSats for education and research; and military/defense satellites.

Loading next visibility...
Identifier
42837, 2017-042N
Orbit
SSO
Country
Flag of USUS
Related business
Manufacturer
Spire/Glasgow
Mission
Operational Commercial Com/MetRO
Bus & Motor
CUBESAT 3U, Unknown motor
Mass
4 kg wet, 4 kg dry
Launch date (UTC)
2017-07-14 (9 years ago)
Launch vehicle
SOYUZ-2-1A
Launch site
Tyuratam Missile And Space Complex (TTMTR)
Object type
Payload
Rocket body
Debris
Shape & HBR
Box, 0.5 m
Radar Cross Section
0.093 m², Small (<0.1 m²)

Expand to show TLE details & history
Last TLE update: 10 hours ago

TLE from 10 hours ago
0 LEMUR 2 GREENBERG
1 42837U 17042N   26119.44521797  .00015755  00000-0  54746-3 0  9998
2 42837  97.3803 300.3577 0009600 170.3455 189.7971 15.29785480480936
Epoch: 2026-04-29T10:41Z
TLE epoch observation values (Epoch: 2026-04-29T10:41:06.832Z)
Latitude
-0.00011°
Longitude
-77.32683°
Altitude
486.043 km
Speed
7.619 km/s
True Right ascension
20h 01m 25s
True Declination
0° 00' 00"
Sunlit
Object was in daylight at epoch
Visualization orbit readout
Latitude
Unknown
Longitude
Unknown
Altitude
Unknown
Speed
Unknown
Apparent Right ascension
Unknown
Apparent Declination
Unknown
Sunlit
N/A
Visualization observer readout
Local Sidereal Time
04:41:58
Azimuth
Unknown
Elevation
Unknown
Doppler factor
Unknown
Orbital elements
Apogee altitude
479.982 km
Perigee altitude
466.827 km
Semi-major axis
6,851.542 km
Eccentricity
0.00096
Inclination
97.3803°
RAAN
300.3577°
Arg. of periapsis
170.3455°
True anomaly
189.7784°
Mean anomaly
189.7971°
Eccentric anomaly
189.78775°
Mean motion
3.82702 °/min
Orbital period
94.07 mins
BSTAR
0.00054746
Loading maneuver chart data...
Computing Atmospheric mass density...
Loading historical data...
Loading historical data...
Loading historical data...
Loading historical data...
Loading historical data...
Loading historical data...
Loading historical data...

Documentation

Showing up to 5 results
|